Regional Weather Roundup
Issued by NWS

Home | Current Version | Previous Version | Graphics & Text | Print | Product List | Glossary On
Versions: 1 2 3 4 5 6 7 8 9 10 11 12 13 14 15 16 17 18 19 20 21 22 23 24 25 26 27 28 29 30 31 32 33 34 35 36 37 38 39 40 41 42 43 44 45 46 47 48 49 50
547
ASUS45 KSLC 020910
RWRUT

UTAH REGIONAL WEATHER ROUNDUP
NATIONAL WEATHER SERVICE SALT LAKE CITY UT
200 AM MST FRI DEC 02 2016

UTZ001>011-023>025-021000-

NORTHERN UTAH

CITY           SKY/WX    TMP DP  RH WIND       PRES   REMARKS
BRIGHAM CITY     N/A     29  24  81 CALM      30.16S
HILL AFB       CLOUDY    24  17  76 E10       30.13R WCI  13
LOGAN          PTCLDY    26  22  84 SW3       30.16R
OGDEN          CLOUDY    24  19  81 S6        30.14R WCI  17
SALT LAKE CITY MOCLDY    29  26  89 S3        30.15R
TOOELE VALLEY  LGT SNOW  30  30 100 CALM      30.17R
WENDOVER       CLOUDY    32  14  47 NE7       30.18R WCI  26
HEBER CITY     CLOUDY    16  14  93 CALM      30.10R
WEST JORDAN    MOCLDY    27  27  98 W7        30.14R WCI  20

$$

UTZ011>015-024>027-021000-

CENTRAL/NORTHEAST UTAH

CITY           SKY/WX    TMP DP  RH WIND       PRES   REMARKS
PROVO AIRPORT  CLEAR     22  19  89 CALM      30.15S
MOAB/CANYONLAN CLOUDY    31  21  66 CALM      30.03S
DELTA          CLOUDY    28  23  80 NW7       30.12S WCI  21
PRICE          CLOUDY    24  12  60 NW5       30.04S WCI  18
ROOSEVELT      FLURRIES  28  23  80 NW3       30.12S
VERNAL         CLOUDY    24  18  77 CALM      30.10R

$$

UTZ013>016-019>022-027-021000-

SOUTHERN UTAH

CITY           SKY/WX    TMP DP  RH WIND       PRES   REMARKS
BRYCE CANYON   CLOUDY    20  15  81 NE13      29.97F WCI   7
CEDAR CITY     CLOUDY    27  20  75 N8        30.02F WCI  19
MILFORD        CLOUDY    29  19  66 N12       30.07S WCI  19
ST GEORGE      MOSUNNY   36  19  51 CALM      30.02S
HANKSVILLE     CLOUDY    30  21  69 CALM      30.07F
BLANDING       MOCLDY    26  18  70 CALM      30.04F

$$

REGIONAL REPORTS     COLORADO/ARIZONA

CITY           SKY/WX    TMP DP  RH WIND       PRES   REMARKS
CRAIG, CO      CLOUDY    16  12  84 CALM      30.09R
GRAND JUNCTION CLOUDY    29  24  82 CALM      30.05R
RIFLE, CO      CLOUDY    25  19  78 SE6       30.07R WCI  18
MONTROSE, CO   CLOUDY    24  16  71 SW3       30.06S
CORTEZ, CO     CLOUDY    17  13  84 CALM      29.99F
COLORADO CITY  CLOUDY    32  25  74 CALM      30.00S
PAGE, AZ       CLOUDY    36  16  44 CALM      29.96F
GRAND CANYON   CLOUDY    31  17  56 NE8       29.92F WCI  23
KINGMAN, AZ    CLOUDY    38  17  42 E10       29.92S WCI  31
FLAGSTAFF, AZ  MOCLDY    26  14  60 E7        29.90R WCI  18

$$

REGIONAL REPORTS    NEVADA/IDAHO/WYOMING

CITY           SKY/WX    TMP DP  RH WIND       PRES   REMARKS
LAS VEGAS, NV  CLOUDY    51  16  24 N18G31    30.00R
ELY, NY        CLOUDY    22  14  71 N9        30.10S WCI  12
ELKO, NV       CLOUDY    24  17  74 CALM      30.18S
POCATELLO, ID  FLURRIES  26  24  92 SW10      30.20R WCI  16
BURLEY, ID     CLOUDY    25  21  85 W5        30.20R WCI  19
FORT BRIDGER,    N/A     16  14  93 W9        30.09S WCI   5
EVANSTON, WY   CLOUDY    18  13  80 CALM      30.06S
ROCK SPRINGS,  CLOUDY    12   9  87 SW9       30.06R WCI   0

$$




USA.gov is the U.S. government's official web portal to all federal, state and local government web resources and services.